This demonstration page uses our WeatherBlox Daily Observations layout. Learn more.

Hourly Observations for April 20, 2017

Temp ( °F °C ) Dew Point ( °F °C ) Humidity (%) Winds ( mph kmh ) Pressure ( in mb ) Visibility ( mi km ) Precip ( " mm )
12:15 am 00:15 Mostly Cloudy 56 13.2 43 6.2 63 63 N 14 22 29.97 1015 10 16.0934 0 0
12:35 am 00:35 Mostly Cloudy 55 12.7 44 6.6 67 67 N 15 24 30.03 1017 10 16.0934 0 0
12:55 am 00:55 Mostly Cloudy 53 11.8 45 7.2 74 74 N 16 26 30.06 1018 10 16.0934 0 0
1:15 am 01:15 Partly Cloudy 52 11 46 7.6 80 80 NNE 10 17 30.06 1018 10 16.0934 0 0
1:35 am 01:35 Partly Cloudy 51 10.5 46 7.5 82 82 N 7 11 30.09 1019 10 16.0934 0 0
1:55 am 01:55 Mostly Cloudy 51 10.6 44 6.9 78 78 N 8 13 30.12 1020 10 16.0934 0 0
2:15 am 02:15 Cloudy 51 10.8 42 5.7 71 71 N 12 19 30.12 1020 10 16.0934 0 0
2:35 am 02:35 Mostly Cloudy 51 10.5 42 5.5 71 71 NNW 10 17 30.12 1020 10 16.0934 0 0
2:55 am 02:55 Mostly Cloudy 50 10.2 42 5.5 73 73 NW 7 11 30.15 1021 10 16.0934 0 0
3:15 am 03:15 Mostly Cloudy 50 10 42 5.7 75 75 NW 9 15 30.12 1020 10 16.0934 0 0
3:35 am 03:35 Partly Cloudy 51 10.5 40 4.5 67 67 NW 9 15 30.12 1020 10 16.0934 0 0
3:55 am 03:55 Partly Cloudy 51 10.3 39 3.9 65 65 NW 9 15 30.15 1021 10 16.0934 0 0
4:15 am 04:15 Clear 49 9.3 39 4 70 70 NW 9 15 30.15 1021 10 16.0934 0 0
4:35 am 04:35 Clear 48 8.9 38 3.5 69 69 NW 8 13 30.15 1021 10 16.0934 0 0
4:55 am 04:55 Clear 47 8.1 38 3.3 72 72 NW 7 11 30.15 1021 10 16.0934 0 0
5:15 am 05:15 Clear 45 7.1 38 3.2 76 76 NW 6 9 30.15 1021 10 16.0934 0 0
5:35 am 05:35 Clear 44 6.5 37 3 79 79 WNW 3 6 30.18 1022 10 16.0934 0 0
5:55 am 05:55 Clear 44 6.5 37 3 79 79 NW 6 9 30.18 1022 10 16.0934 0 0
6:15 am 06:15 Clear 43 6 37 2.7 80 80 NW 5 7 30.18 1022 10 16.0934 0 0
6:35 am 06:35 Clear 44 6.5 37 3 79 79 NW 9 15 30.18 1022 10 16.0934 0 0
6:55 am 06:55 Sunny 44 6.4 37 2.5 76 76 NW 9 15 30.18 1022 10 16.0934 0 0
7:15 am 07:15 Sunny 44 6.5 37 2.5 76 76 NNW 12 19 30.18 1022 10 16.0934 0 0
7:35 am 07:35 Sunny 45 7 37 2.5 73 73 NNW 10 17 30.18 1022 10 16.0934 0 0
7:55 am 07:55 Sunny 45 7.4 37 2.8 73 73 NNW 10 17 30.15 1021 10 16.0934 0 0
8:15 am 08:15 Sunny 46 8 37 2.7 69 69 NNW 10 17 30.15 1021 10 16.0934 0 0
8:35 am 08:35 Sunny 49 9.2 37 3 65 65 NNW 16 26 30.15 1021 10 16.0934 0 0
8:55 am 08:55 Sunny 50 10.2 37 2.8 60 60 NNW 16 26 30.15 1021 10 16.0934 0 0
9:15 am 09:15 Sunny 51 10.7 37 2.9 59 59 NNW 18 30 30.12 1020 10 16.0934 0 0
9:35 am 09:35 Sunny 52 11.2 37 2.8 57 57 NNW 14 22 30.12 1020 10 16.0934 0 0
9:55 am 09:55 Sunny 53 11.8 37 2.9 55 55 NNW 14 22 30.12 1020 10 16.0934 0 0
10:15 am 10:15 Sunny 55 12.5 37 2.8 52 52 N 12 19 30.12 1020 10 16.0934 0 0
10:35 am 10:35 Sunny 56 13.4 36 2 46 46 NNW 21 33 30.12 1020 10 16.0934 0 0
10:55 am 10:55 Sunny 58 14.2 35 1.5 42 42 N 17 28 30.09 1019 10 16.0934 0 0
11:15 am 11:15 Sunny 58 14.7 33 0.7 39 39 N 14 22 30.09 1019 10 16.0934 0 0
11:35 am 11:35 Sunny 60 15.6 33 0.3 36 36 N 15 24 30.12 1020 10 16.0934 0 0
11:55 am 11:55 Sunny 60 15.8 32 -0.1 34 34 N 10 17 30.12 1020 10 16.0934 0 0
12:15 pm 12:15 Sunny 61 16.3 33 0.3 34 34 N 9 15 30.09 1019 10 16.0934 0 0
12:35 pm 12:35 Sunny 62 16.5 33 0.3 34 34 NNW 14 22 30.09 1019 10 16.0934 0 0
12:55 pm 12:55 Sunny 62 16.6 32 0.1 33 33 N 8 13 30.09 1019 10 16.0934 0 0
1:15 pm 13:15 Sunny 63 17.1 32 -0.1 31 31 N 7 11 30.09 1019 10 16.0934 0 0
1:35 pm 13:35 Sunny 64 17.6 31 -0.4 30 30 WNW 10 17 30.06 1018 10 16.0934 0 0
1:55 pm 13:55 Sunny 64 17.9 31 -0.3 29 29 W 7 11 30.06 1018 10 16.0934 0 0
2:15 pm 14:15 Sunny 65 18.2 31 -0.3 29 29 NNW 6 9 30.06 1018 10 16.0934 0 0
2:35 pm 14:35 Sunny 66 18.9 30 -0.9 26 26 WNW 12 19 30.06 1018 10 16.0934 0 0
2:55 pm 14:55 Sunny 67 19.3 29 -1.4 25 25 NNW 5 7 30.06 1018 10 16.0934 0 0
3:15 pm 15:15 Sunny 68 19.9 29 -1.7 23 23 N 10 17 30.03 1017 10 16.0934 0 0
3:35 pm 15:35 Sunny 68 19.8 29 -1.9 23 23 N 7 11 30.03 1017 10 16.0934 0 0
3:55 pm 15:55 Sunny 68 20.1 26 -3.1 21 21 NW 5 7 30.03 1017 10 16.0934 0 0
4:15 pm 16:15 Sunny 68 19.9 25 -3.9 20 20 Calm 30 1016 10 16.0934 0 0
4:35 pm 16:35 Sunny 69 20.8 22 -5.4 17 17 NNW 10 17 29.97 1015 10 16.0934 0 0
4:55 pm 16:55 Sunny 69 20.5 24 -4.2 19 19 Calm 29.97 1015 10 16.0934 0 0
5:15 pm 17:15 Sunny 69 20.8 23 -4.9 17 17 NNW 13 20 29.94 1014 10 16.0934 0 0
5:35 pm 17:35 Sunny 70 21.1 24 -4.7 17 17 N 10 17 29.97 1015 10 16.0934 0 0
5:55 pm 17:55 Sunny 69 20.8 23 -5.2 17 17 N 7 11 29.94 1014 10 16.0934 0 0
6:15 pm 18:15 Sunny 69 20.5 24 -4.7 18 18 N 7 11 29.94 1014 10 16.0934 0 0
6:35 pm 18:35 Sunny 69 20.5 22 -5.5 17 17 N 10 17 29.94 1014 10 16.0934 0 0
6:55 pm 18:55 Sunny 69 20.4 24 -4.5 18 18 NNE 10 17 29.94 1014 10 16.0934 0 0
7:15 pm 19:15 Sunny 67 19.3 25 -3.8 21 21 NE 12 19 29.97 1015 10 16.0934 0 0
7:35 pm 19:35 Sunny 65 18.5 29 -1.5 26 26 NE 8 13 29.97 1015 10 16.0934 0 0
7:55 pm 19:55 Sunny 64 17.5 28 -2 27 27 NE 10 17 29.97 1015 10 16.0934 0 0
8:15 pm 20:15 Sunny 62 16.4 29 -1.7 29 29 NE 8 13 30.03 1017 10 16.0934 0 0
8:35 pm 20:35 Clear 58 14.6 29 -1.5 33 33 NE 9 15 30.03 1017 10 16.0934 0 0
8:55 pm 20:55 Clear 59 15.1 31 -0.7 34 34 NE 10 17 30.03 1017 10 16.0934 0 0
9:15 pm 21:15 Clear 57 13.9 32 0 39 39 ENE 8 13 30.03 1017 10 16.0934 0 0
9:35 pm 21:35 Clear 56 13.5 33 0.3 41 41 ENE 8 13 30.06 1018 10 16.0934 0 0
9:55 pm 21:55 Clear 55 13 34 0.9 44 44 ENE 10 17 30.09 1019 10 16.0934 0 0
10:15 pm 22:15 Clear 55 13 35 1.5 46 46 ENE 10 17 30.09 1019 10 16.0934 0 0
10:35 pm 22:35 Clear 55 12.5 36 2 49 49 ENE 12 19 30.09 1019 10 16.0934 0 0
10:55 pm 22:55 Clear 55 12.7 37 2.8 51 51 ENE 12 19 30.12 1020 10 16.0934 0 0
11:15 pm 23:15 Partly Cloudy 55 12.6 38 3.1 53 53 E 12 19 30.12 1020 10 16.0934 0 0
11:35 pm 23:35 Partly Cloudy 55 12.6 38 3.5 54 54 E 10 17 30.12 1020 10 16.0934 0 0
11:55 pm 23:55 Partly Cloudy 55 12.5 38 3.6 55 55 E 10 17 30.12 1020 10 16.0934 0 0

Powered by AerisWeather